Time,TemperatureF,DewpointF,PressureIn,WindDirection,WindDirectionDegrees,WindSpeedMPH,WindSpeedGustMPH,Humidity,HourlyPrecipIn,Conditions,Clouds,dailyrainin,SoftwareType,DateUTC
2013-10-30 00:05:00,33.4,30.0,30.35,NNW,344,0.0,0.0,87,0.00,,,0.00,weatherlink.com 1.10,2013-10-30 04:05:00,
2013-10-30 00:20:00,33.1,30.0,30.35,NNW,344,0.0,0.0,88,0.00,,,0.00,weatherlink.com 1.10,2013-10-30 04:20:00,
2013-10-30 00:36:00,32.9,30.0,30.34,NNW,344,0.0,0.0,89,0.00,,,0.00,weatherlink.com 1.10,2013-10-30 04:36:00,
2013-10-30 00:51:00,32.5,30.0,30.34,NNW,344,0.0,0.0,90,0.00,,,0.00,weatherlink.com 1.10,2013-10-30 04:51:00,
2013-10-30 01:06:00,32.5,30.0,30.34,NNW,344,0.0,0.0,90,0.00,,,0.00,weatherlink.com 1.10,2013-10-30 05:06:00,
2013-10-30 01:21:00,32.3,30.0,30.33,NNW,344,0.0,0.0,90,0.00,,,0.00,weatherlink.com 1.10,2013-10-30 05:21:00,
2013-10-30 01:36:00,32.0,30.0,30.33,NNW,344,0.0,0.0,91,0.00,,,0.00,weatherlink.com 1.10,2013-10-30 05:36:00,
2013-10-30 01:51:00,31.9,30.0,30.33,NNW,344,0.0,0.0,91,0.00,,,0.00,weatherlink.com 1.10,2013-10-30 05:51:00,
2013-10-30 02:06:00,31.9,30.0,30.34,NNW,344,0.0,0.0,92,0.00,,,0.00,weatherlink.com 1.10,2013-10-30 06:06:00,
2013-10-30 02:21:00,32.0,30.0,30.33,NNW,344,0.0,0.0,92,0.00,,,0.00,weatherlink.com 1.10,2013-10-30 06:21:00,
2013-10-30 02:36:00,32.2,30.0,30.33,NNW,344,0.0,0.0,92,0.00,,,0.00,weatherlink.com 1.10,2013-10-30 06:36:00,
2013-10-30 02:51:00,32.7,31.0,30.33,NNW,344,0.0,0.0,93,0.00,,,0.00,weatherlink.com 1.10,2013-10-30 06:51:00,
2013-10-30 03:06:00,33.3,32.0,30.33,NNW,344,0.0,0.0,93,0.00,,,0.00,weatherlink.com 1.10,2013-10-30 07:06:00,
2013-10-30 03:21:00,33.7,32.0,30.32,NNW,344,0.0,0.0,93,0.00,,,0.00,weatherlink.com 1.10,2013-10-30 07:21:00,
2013-10-30 03:36:00,34.3,33.0,30.31,NNW,344,0.0,0.0,94,0.00,,,0.00,weatherlink.com 1.10,2013-10-30 07:36:00,
2013-10-30 03:51:00,35.0,34.0,30.30,NNW,344,0.0,0.0,94,0.00,,,0.00,weatherlink.com 1.10,2013-10-30 07:51:00,
2013-10-30 04:06:00,35.7,34.0,30.29,NNW,344,0.0,0.0,94,0.00,,,0.00,weatherlink.com 1.10,2013-10-30 08:06:00,
2013-10-30 04:21:00,36.5,35.0,30.30,NNW,344,0.0,0.0,94,0.00,,,0.00,weatherlink.com 1.10,2013-10-30 08:21:00,
2013-10-30 04:36:00,37.0,36.0,30.29,NNW,344,0.0,0.0,94,0.00,,,0.00,weatherlink.com 1.10,2013-10-30 08:36:00,
2013-10-30 04:51:00,37.6,36.0,30.29,NNW,344,0.0,0.0,94,0.00,,,0.00,weatherlink.com 1.10,2013-10-30 08:51:00,
2013-10-30 05:06:00,38.0,37.0,30.29,NNW,344,0.0,0.0,94,0.00,,,0.00,weatherlink.com 1.10,2013-10-30 09:06:00,
2013-10-30 05:21:00,38.2,36.0,30.28,NNW,344,0.0,0.0,93,0.00,,,0.00,weatherlink.com 1.10,2013-10-30 09:21:00,
2013-10-30 05:36:00,38.3,36.0,30.28,NNW,344,0.0,0.0,92,0.00,,,0.00,weatherlink.com 1.10,2013-10-30 09:36:00,
2013-10-30 05:51:00,38.4,36.0,30.29,NNW,344,0.0,0.0,92,0.00,,,0.00,weatherlink.com 1.10,2013-10-30 09:51:00,
2013-10-30 06:06:00,38.7,37.0,30.30,NNW,344,0.0,0.0,92,0.00,,,0.00,weatherlink.com 1.10,2013-10-30 10:06:00,
2013-10-30 06:21:00,39.0,37.0,30.30,NNW,344,0.0,0.0,92,0.00,,,0.00,weatherlink.com 1.10,2013-10-30 10:21:00,
2013-10-30 06:36:00,39.3,37.0,30.30,NNW,344,0.0,0.0,92,0.00,,,0.00,weatherlink.com 1.10,2013-10-30 10:36:00,
2013-10-30 06:51:00,39.6,38.0,30.30,NNW,344,0.0,0.0,92,0.00,,,0.00,weatherlink.com 1.10,2013-10-30 10:51:00,
2013-10-30 07:06:00,39.7,37.0,30.30,NNW,344,0.0,0.0,91,0.00,,,0.00,weatherlink.com 1.10,2013-10-30 11:06:00,
2013-10-30 07:21:00,39.9,38.0,30.29,NNW,344,0.0,0.0,91,0.00,,,0.00,weatherlink.com 1.10,2013-10-30 11:21:00,
2013-10-30 07:36:00,40.2,38.0,30.29,NNW,344,0.0,0.0,91,0.00,,,0.00,weatherlink.com 1.10,2013-10-30 11:36:00,
2013-10-30 07:51:00,40.5,38.0,30.29,NNW,344,0.0,0.0,90,0.00,,,0.00,weatherlink.com 1.10,2013-10-30 11:51:00,
2013-10-30 08:06:00,40.8,38.0,30.28,NNW,344,0.0,0.0,91,0.00,,,0.00,weatherlink.com 1.10,2013-10-30 12:06:00,
2013-10-30 08:21:00,41.2,39.0,30.29,NNW,344,0.0,0.0,91,0.00,,,0.00,weatherlink.com 1.10,2013-10-30 12:21:00,
2013-10-30 08:36:00,41.9,40.0,30.28,NNW,344,0.0,0.0,91,0.00,,,0.00,weatherlink.com 1.10,2013-10-30 12:36:00,
2013-10-30 08:52:00,42.7,40.0,30.29,NNW,344,0.0,0.0,91,0.00,,,0.00,weatherlink.com 1.10,2013-10-30 12:52:00,
2013-10-30 09:07:00,43.2,40.0,30.29,NNW,344,0.0,0.0,89,0.00,,,0.00,weatherlink.com 1.10,2013-10-30 13:07:00,
2013-10-30 09:21:00,44.1,41.0,30.29,NNW,344,0.0,0.0,87,0.00,,,0.00,weatherlink.com 1.10,2013-10-30 13:21:00,
2013-10-30 09:37:00,46.7,44.0,30.28,SSE,153,1.0,5.0,89,0.00,,,0.00,weatherlink.com 1.10,2013-10-30 13:37:00,
2013-10-30 09:52:00,48.5,45.0,30.28,SSE,164,0.0,4.0,87,0.00,,,0.00,weatherlink.com 1.10,2013-10-30 13:52:00,
2013-10-30 10:07:00,49.6,46.0,30.28,WNW,300,3.0,3.0,86,0.00,,,0.00,weatherlink.com 1.10,2013-10-30 14:07:00,
2013-10-30 10:23:00,50.1,46.0,30.28,SW,234,0.0,2.0,84,0.00,,,0.00,weatherlink.com 1.10,2013-10-30 14:23:00,
2013-10-30 10:37:00,50.5,46.0,30.28,WSW,244,0.0,1.0,83,0.00,,,0.00,weatherlink.com 1.10,2013-10-30 14:37:00,
2013-10-30 10:52:00,50.9,46.0,30.28,WSW,243,0.0,1.0,84,0.00,,,0.00,weatherlink.com 1.10,2013-10-30 14:52:00,
2013-10-30 11:08:00,51.5,47.0,30.28,SSW,202,0.0,5.0,84,0.00,,,0.00,weatherlink.com 1.10,2013-10-30 15:08:00,
2013-10-30 11:22:00,51.8,47.0,30.28,SSE,152,1.0,3.0,84,0.00,,,0.00,weatherlink.com 1.10,2013-10-30 15:22:00,
2013-10-30 11:37:00,51.9,47.0,30.27,SW,229,0.0,3.0,84,0.00,,,0.00,weatherlink.com 1.10,2013-10-30 15:37:00,
2013-10-30 11:53:00,52.2,48.0,30.27,SSE,155,0.0,2.0,84,0.00,,,0.00,weatherlink.com 1.10,2013-10-30 15:53:00,
2013-10-30 12:07:00,52.4,48.0,30.27,South,190,0.0,0.0,84,0.00,,,0.00,weatherlink.com 1.10,2013-10-30 16:07:00,
2013-10-30 12:23:00,53.2,48.0,30.26,West,264,2.0,4.0,83,0.00,,,0.00,weatherlink.com 1.10,2013-10-30 16:23:00,
2013-10-30 12:38:00,54.0,49.0,30.26,WSW,242,0.0,1.0,83,0.00,,,0.00,weatherlink.com 1.10,2013-10-30 16:38:00,
2013-10-30 12:52:00,54.9,50.0,30.25,North,349,0.0,6.0,82,0.00,,,0.00,weatherlink.com 1.10,2013-10-30 16:52:00,
2013-10-30 13:08:00,56.2,50.0,30.24,WNW,290,1.0,3.0,79,0.00,,,0.00,weatherlink.com 1.10,2013-10-30 17:08:00,
2013-10-30 13:23:00,56.0,50.0,30.23,WNW,288,0.0,5.0,79,0.00,,,0.00,weatherlink.com 1.10,2013-10-30 17:23:00,
2013-10-30 13:39:00,55.8,50.0,30.23,NNW,336,2.0,3.0,80,0.00,,,0.00,weatherlink.com 1.10,2013-10-30 17:39:00,
2013-10-30 13:53:00,55.2,49.0,30.23,WNW,283,0.0,4.0,79,0.00,,,0.00,weatherlink.com 1.10,2013-10-30 17:53:00,
2013-10-30 14:08:00,54.8,49.0,30.22,WNW,283,0.0,4.0,80,0.00,,,0.00,weatherlink.com 1.10,2013-10-30 18:08:00,
2013-10-30 14:24:00,55.3,49.0,30.21,WNW,283,0.0,0.0,80,0.00,,,0.00,weatherlink.com 1.10,2013-10-30 18:24:00,
2013-10-30 14:38:00,55.6,49.0,30.20,WNW,283,0.0,0.0,79,0.00,,,0.00,weatherlink.com 1.10,2013-10-30 18:38:00,
2013-10-30 14:53:00,55.7,49.0,30.20,WNW,283,0.0,2.0,79,0.00,,,0.00,weatherlink.com 1.10,2013-10-30 18:53:00,
2013-10-30 15:09:00,55.8,49.0,30.20,WNW,283,0.0,3.0,78,0.00,,,0.00,weatherlink.com 1.10,2013-10-30 19:09:00,
2013-10-30 15:23:00,55.9,49.0,30.19,WNW,283,0.0,0.0,78,0.00,,,0.00,weatherlink.com 1.10,2013-10-30 19:23:00,
2013-10-30 15:39:00,55.9,50.0,30.19,WNW,283,0.0,0.0,79,0.00,,,0.00,weatherlink.com 1.10,2013-10-30 19:39:00,
2013-10-30 15:54:00,56.1,50.0,30.19,WNW,284,0.0,0.0,79,0.00,,,0.00,weatherlink.com 1.10,2013-10-30 19:54:00,
2013-10-30 16:09:00,56.4,50.0,30.19,WNW,284,0.0,0.0,78,0.00,,,0.00,weatherlink.com 1.10,2013-10-30 20:09:00,
2013-10-30 16:24:00,56.6,50.0,30.19,WNW,283,0.0,0.0,78,0.00,,,0.00,weatherlink.com 1.10,2013-10-30 20:24:00,
2013-10-30 16:40:00,56.6,50.0,30.18,SSE,151,1.0,1.0,78,0.00,,,0.00,weatherlink.com 1.10,2013-10-30 20:40:00,
2013-10-30 16:54:00,56.6,50.0,30.19,ESE,122,0.0,0.0,79,0.00,,,0.00,weatherlink.com 1.10,2013-10-30 20:54:00,
2013-10-30 17:10:00,56.5,50.0,30.18,SSW,211,0.0,0.0,79,0.00,,,0.00,weatherlink.com 1.10,2013-10-30 21:10:00,
2013-10-30 17:25:00,56.1,50.0,30.19,SSW,211,0.0,0.0,79,0.00,,,0.00,weatherlink.com 1.10,2013-10-30 21:25:00,
2013-10-30 17:39:00,55.4,50.0,30.19,SSW,211,0.0,0.0,81,0.00,,,0.00,weatherlink.com 1.10,2013-10-30 21:39:00,
2013-10-30 17:55:00,54.5,49.0,30.19,SSW,211,0.0,0.0,83,0.00,,,0.00,weatherlink.com 1.10,2013-10-30 21:55:00,
2013-10-30 18:09:00,53.7,49.0,30.19,SSW,195,0.0,0.0,84,0.00,,,0.00,weatherlink.com 1.10,2013-10-30 22:09:00,
2013-10-30 18:25:00,52.8,49.0,30.19,SSW,195,0.0,0.0,86,0.00,,,0.00,weatherlink.com 1.10,2013-10-30 22:25:00,
2013-10-30 18:40:00,51.9,49.0,30.19,SSW,195,0.0,0.0,88,0.00,,,0.00,weatherlink.com 1.10,2013-10-30 22:40:00,
2013-10-30 18:56:00,51.0,48.0,30.20,SSW,195,0.0,0.0,89,0.00,,,0.00,weatherlink.com 1.10,2013-10-30 22:56:00,
2013-10-30 19:10:00,50.6,48.0,30.21,SSW,195,0.0,0.0,89,0.00,,,0.00,weatherlink.com 1.10,2013-10-30 23:10:00,
2013-10-30 19:25:00,49.6,47.0,30.22,SSW,195,0.0,0.0,89,0.00,,,0.00,weatherlink.com 1.10,2013-10-30 23:25:00,
2013-10-30 19:41:00,48.6,46.0,30.22,SSW,195,0.0,0.0,90,0.00,,,0.00,weatherlink.com 1.10,2013-10-30 23:41:00,
2013-10-30 19:55:00,47.6,45.0,30.22,SSW,195,0.0,0.0,91,0.00,,,0.00,weatherlink.com 1.10,2013-10-30 23:55:00,
2013-10-30 20:11:00,46.9,45.0,30.22,SSW,195,0.0,0.0,91,0.00,,,0.00,weatherlink.com 1.10,2013-10-31 00:11:00,
2013-10-30 20:25:00,46.1,44.0,30.23,SSW,195,0.0,0.0,91,0.00,,,0.00,weatherlink.com 1.10,2013-10-31 00:25:00,
2013-10-30 20:40:00,45.4,43.0,30.23,SSW,195,0.0,0.0,91,0.00,,,0.00,weatherlink.com 1.10,2013-10-31 00:40:00,
2013-10-30 20:55:00,44.9,43.0,30.23,SSW,195,0.0,0.0,92,0.00,,,0.00,weatherlink.com 1.10,2013-10-31 00:55:00,
2013-10-30 21:12:00,44.7,43.0,30.23,SSW,195,0.0,0.0,93,0.00,,,0.00,weatherlink.com 1.10,2013-10-31 01:12:00,
2013-10-30 21:26:00,44.8,43.0,30.23,SSW,195,0.0,0.0,94,0.00,,,0.00,weatherlink.com 1.10,2013-10-31 01:26:00,
2013-10-30 21:40:00,44.9,43.0,30.24,SSW,195,0.0,0.0,94,0.00,,,0.00,weatherlink.com 1.10,2013-10-31 01:40:00,
2013-10-30 21:57:00,45.3,44.0,30.24,SSW,195,0.0,0.0,94,0.00,,,0.00,weatherlink.com 1.10,2013-10-31 01:57:00,
2013-10-30 22:11:00,45.7,44.0,30.25,SSW,195,0.0,0.0,95,0.00,,,0.00,weatherlink.com 1.10,2013-10-31 02:11:00,
2013-10-30 22:26:00,46.1,45.0,30.25,SSW,195,0.0,0.0,95,0.00,,,0.00,weatherlink.com 1.10,2013-10-31 02:26:00,
2013-10-30 22:41:00,46.3,45.0,30.23,SSW,195,0.0,0.0,95,0.00,,,0.00,weatherlink.com 1.10,2013-10-31 02:41:00,
2013-10-30 22:56:00,46.2,45.0,30.23,SSW,195,0.0,0.0,95,0.00,,,0.00,weatherlink.com 1.10,2013-10-31 02:56:00,
2013-10-30 23:12:00,45.8,45.0,30.23,SSW,195,0.0,0.0,95,0.00,,,0.00,weatherlink.com 1.10,2013-10-31 03:12:00,
2013-10-30 23:27:00,45.8,45.0,30.23,SSW,195,0.0,0.0,95,0.00,,,0.00,weatherlink.com 1.10,2013-10-31 03:27:00,
2013-10-30 23:41:00,46.1,45.0,30.23,SSW,195,0.0,0.0,96,0.00,,,0.00,weatherlink.com 1.10,2013-10-31 03:41:00,
2013-10-30 23:57:00,45.8,45.0,30.23,SSW,195,0.0,0.0,95,0.00,,,0.00,weatherlink.com 1.10,2013-10-31 03:57:00,